Regional Weather Roundup
Issued by NWS Glasgow, MT

Current Version | Previous Version | Text Only | Print | Product List | Glossary On
Versions: 1 2 3 4 5 6 7 8 9 10 11 12 13 14 15 16 17 18 19 20 21 22 23 24 25 26 27
000
ASUS45 KGGW 281615
RWRGGW
HOURLY REGIONAL WEATHER ROUNDUP FOR NORTHEAST MONTANA
NATIONAL WEATHER SERVICE GLASGOW MONTANA
1000 AM MDT SAT MAY 28 2016

NOTE: "FAIR" INDICATES FEW OR NO CLOUDS BELOW 12,000 FEET WITH NO
SIGNIFICANT WEATHER AND/OR OBSTRUCTIONS TO VISISBILITY.

NORTHEAST MONTANA


CITY           SKY/WX    TMP DP  RH WIND       PRES   REMARKS
GLASGOW        LGT RAIN  53  51  93 NW10      29.90S
PLENTYWOOD       N/A     55  50  83 W10         N/A
WOLF POINT     CLOUDY    61  53  75 S6        29.89R
JORDAN           N/A     56  50  80 NW8       29.93R
WINNETT          N/A     60  38  43 W9G20       N/A
SIDNEY         PTSUNNY   62  53  72 CALM      29.88S
GLENDIVE       MOSUNNY   64  54  68 SW6       29.91S
MALTA            N/A     58  50  75 W7G16       N/A
SCOBEY           N/A     55  49  80 E12       29.89S
OPHEIM           N/A     50  48  93 W9        29.74R

FORT PECK REPORTS


CITY           SKY/WX    TMP DP  RH WIND       PRES   REMARKS
FORT PECK        N/A     52  51  97 W12         N/A
THE PINES        N/A     54  51  90 NW6G14      N/A

SOUTHEAST MONTANA


CITY           SKY/WX    TMP DP  RH WIND       PRES   REMARKS
BILLINGS       PTSUNNY   55  42  61 SW5       29.99S
MILES CITY     CLOUDY    57  51  80 W10       29.93S
BAKER          MOSUNNY   66  48  52 W9        29.90S
LIVINGSTON     CLOUDY    50  40  68 W9        30.01S

CENTRAL MONTANA


CITY           SKY/WX    TMP DP  RH WIND       PRES   REMARKS
HAVRE          SUNNY     56  39  53 SW14      29.93R
LEWISTOWN      MOSUNNY   55  39  54 NW9       29.98S
GREAT FALLS    MOSUNNY   54  30  40 W18G32    29.98S
CUT BANK       MOSUNNY   53  31  42 W15       29.94S
HELENA         SUNNY     55  30  38 W16       30.02S
BUTTE          CLOUDY    47  30  51 N7        30.05S
BOZEMAN        CLOUDY    50  39  66 NW7       30.03F

WESTERN MONTANA


CITY           SKY/WX    TMP DP  RH WIND       PRES   REMARKS
MISSOULA       PTSUNNY   49  37  63 CALM      30.07S
KALISPELL      NOT AVBL

NORTH DAKOTA


CITY           SKY/WX    TMP DP  RH WIND       PRES   REMARKS
WILLISTON      CLOUDY    61  52  72 E8        29.90R
DICKINSON      SUNNY     64  48  56 VRB6      29.87S
MINOT          CLOUDY    61  53  75 N5        29.90S
BISMARCK       CLOUDY    67  56  67 E7        29.88F

SOUTHERN SASKATCHEWAN


CITY           SKY/WX    TMP DP  RH WIND       PRES   REMARKS
REGINA         CLOUDY    55  50  82 E13       29.94R
ESTEVAN        CLOUDY    54  52  94 E9        29.93R FOG
SWIFT CURRENT  LGT RAIN  48  46  93 W15       29.88R





USA.gov is the U.S. government's official web portal to all federal, state and local government web resources and services.